Weather in Irgiz

Kazakhstan     48°37′10″N   61°15′36″E
temp.,
°C
wind,
m/s
gust,
m/s
humid.,
%
clouds,
%
prec.,
mm/h
press.,
hPa
HPBL,
m
13 may, thu
thu1323:00+19e46384 0.0 102689
02:00+17ene34425 0.0 102639
05:00+15ene33465 0.0 102733
08:00+19ene34380 0.0 1027251
11:00+24ene45250 0.0 10271660
14:00+27ne34190 0.0 10262160
17:00+28ne44165 0.0 10252377
20:00+24nne33265 0.0 102532
14 may, fri
fri1423:00+21nne44324 0.0 102550
02:00+19ene33440 0.0 102527
05:00+18e22510 0.0 102611
08:00+22ene22390 0.0 1027240
11:00+26ene23290 0.0 10261205
14:00+29ene34240 0.0 10252556
17:00+30ne34201 0.0 10242919
20:00+27ene34260 0.0 102446
15 may, sat
sat1523:00+24ene33280 0.0 102420
02:00+21ese22380 0.0 102414
05:00+20ese34440 0.0 102435
08:00+23ese34390 0.0 1025305
11:00+27ese45260 0.0 10251461
14:00+29e55220 0.0 10242285
17:00+29e66180 0.0 10232276
20:00+26ene46240 0.0 1022108
16 may, sun
sun1623:00+22e34270 0.0 102350
02:00+20e33320 0.0 102222
05:00+18ene23370 0.0 102312
08:00+23ene34310 0.0 1024246
11:00+28ene45220 0.0 10231666
14:00+30ene44170 0.0 10212435
17:00+30ene44160 0.0 10202794
20:00+27ene45220 0.0 102072
17 may, mon
mon1723:00+24ene33260 0.0 102029
02:00+22ene22320 0.0 101912
05:00+21ne23340 0.0 101912
08:00+25ene34291 0.0 1020232
11:00+29e33225 0.0 10191755
14:00+31ne22195 0.0 10183096
17:00+32nne22185 0.0 10163443
20:00+29ene12250 0.0 101513